Location: DaVinci Observatory
(43.1080°N, 78.6453°W)
Time: 16:32:10
(UTC-04:00)

Vanguard 2 Rocket - Visible Passes

Search period start: 18 October 2017 00:00
Search period end: 28 October 2017 00:00
Orbit: 555 x 3327 km, 32.9° (Epoch: 17 October)

Date Brightness Start Highest point End Pass type
(mag) Time Alt. Az. Time Alt. Az. Time Alt. Az.
18 Oct 10.6 20:12:51 10° WSW 20:23:28 24° SSW 20:37:02 10° SSE visible
19 Oct 10.4 19:12:28 10° W 19:22:47 29° SSW 19:37:09 10° SSE visible
19 Oct 11.1 21:34:47 10° SW 21:38:12 11° SW 21:41:47 10° SSW visible
20 Oct 11.0 20:29:50 10° WSW 20:37:35 16° SW 20:46:48 10° S visible
21 Oct 10.7 19:28:23 10° WSW 19:37:01 21° SSW 19:48:18 10° S visible
22 Oct 10.5 18:28:09 10° WSW 18:36:35 25° SSW 18:48:32 10° SSE visible
23 Oct 11.1 19:46:28 10° SW 19:51:20 12° SSW 19:56:54 10° SSW visible
24 Oct 10.9 18:44:34 10° WSW 18:50:59 16° SSW 18:59:09 10° S visible
